CW3467 Weather Reports


Display with metric or nautical units.
time (UTC)temp
F
wind
direction
speed
MPH
gust
MPH
rain 1hr
in
rain 24hr
in
rain mn
in
humidity
%
barometer
mb
20260831175503 84 241 2.0 4.0 0.00 0.00 0.00 44 1019.7
20260831175005 85 262 2.0 8.0 0.00 0.00 0.00 43 1019.6
20260831174524 85 300 3.0 9.0 0.00 0.00 0.00 43 1019.5
20260831174003 85 297 3.0 10.0 0.00 0.00 0.00 43 1019.5
20260831173503 85 271 2.0 10.0 0.00 0.00 0.00 42 1019.6
20260831173024 86 269 2.0 8.0 0.00 0.00 0.00 42 1019.5
20260831172503 86 293 3.0 11.0 0.00 0.00 0.00 42 1019.6
20260831172003 86 287 3.0 11.0 0.00 0.00 0.00 42 1019.6
20260831171503 87 240 2.0 8.0 0.00 0.00 0.00 41 1019.4
20260831171003 87 294 3.0 10.0 0.00 0.00 0.00 41 1019.4
20260831170524 87 344 3.0 10.0 0.00 0.00 0.00 41 1019.4
20260831170003 88 288 2.0 11.0 0.00 0.00 0.00 40 1019.1
20260831165524 88 231 2.0 13.0 0.00 0.00 0.00 39 1019.1
20260831165003 88 256 3.0 13.0 0.00 0.00 0.00 40 1019.5
20260831164503 88 278 3.0 8.0 0.00 0.00 0.00 39 1019.2
20260831164003 89 271 2.0 8.0 0.00 0.00 0.00 39 1019.2
20260831163503 89 281 2.0 8.0 0.00 0.00 0.00 36 1019.2
20260831163003 89 279 2.0 7.0 0.00 0.00 0.00 37 1019.4
20260831162503 90 262 2.0 6.0 0.00 0.00 0.00 36 1019.2
20260831162024 89 269 3.0 9.0 0.00 0.00 0.00 37 1019.2
20260831161503 89 281 2.0 9.0 0.00 0.00 0.00 36 1019.4
20260831161003 90 217 1.0 3.0 0.00 0.00 0.00 36 1019.4
20260831160503 90 249 2.0 8.0 0.00 0.00 0.00 36 1019.1
20260831160003 91 283 2.0 8.0 0.00 0.00 0.00 34 1019.2
20260831155503 91 300 2.0 8.0 0.00 0.00 0.00 36 1019.1
20260831155003 91 291 2.0 8.0 0.00 0.00 0.00 36 1019.4
20260831154503 91 255 1.0 7.0 0.00 0.00 0.00 35 1019.4
20260831154003 91 248 2.0 6.0 0.00 0.00 0.00 36 1019.5
20260831153503 90 268 2.0 11.0 0.00 0.00 0.00 35 1019.4
20260831153003 90 301 2.0 11.0 0.00 0.00 0.00 36 1019.7
20260831152503 91 296 2.0 8.0 0.00 0.00 0.00 35 1019.5
20260831152024 91 272 2.0 8.0 0.00 0.00 0.00 36 1019.6
20260831151503 92 273 1.0 6.0 0.00 0.00 0.00 37 1019.5
20260831151003 92 52 1.0 6.0 0.00 0.00 0.00 36 1019.5
20260831150503 91 60 1.0 6.0 0.00 0.00 0.00 36 1019.6
20260831150003 89 86 2.0 6.0 0.00 0.00 0.00 37 1019.8
20260831145503 89 91 2.0 6.0 0.00 0.00 0.00 36 1019.6
20260831145024 89 47 2.0 8.0 0.00 0.00 0.00 36 1019.7
20260831144503 88 42 2.0 8.0 0.00 0.00 0.00 36 1019.8
20260831144003 90 42 2.0 6.0 0.00 0.00 0.00 36 1019.7
20260831143503 90 1 2.0 7.0 0.00 0.00 0.00 36 1020.0
20260831143003 90 325 2.0 7.0 0.00 0.00 0.00 36 1020.0
20260831142524 91 55 2.0 7.0 0.00 0.00 0.00 36 1019.8
20260831142003 90 47 2.0 7.0 0.00 0.00 0.00 36 1019.8
20260831141503 90 314 2.0 8.0 0.00 0.00 0.00 36 1020.0
20260831141003 90 284 3.0 8.0 0.00 0.00 0.00 37 1020.0
20260831140503 91 301 2.0 8.0 0.00 0.00 0.00 36 1020.1
20260831140003 90 283 3.0 8.0 0.00 0.00 0.00 37 1020.1
20260831135503 90 275 2.0 8.0 0.00 0.00 0.00 36 1020.2
20260831135003 90 303 2.0 14.0 0.00 0.00 0.00 36 1020.2
20260831134503 90 300 3.0 14.0 0.00 0.00 0.00 36 1020.4
20260831134003 89 287 2.0 7.0 0.00 0.00 0.00 36 1020.2
20260831133503 91 263 2.0 7.0 0.00 0.00 0.00 36 1020.3
20260831133003 90 243 2.0 7.0 0.00 0.00 0.00 36 1020.3
20260831132503 90 219 1.0 6.0 0.00 0.00 0.00 35 1020.3
20260831132003 89 259 2.0 9.0 0.00 0.00 0.00 35 1020.1
20260831131503 88 280 2.0 9.0 0.00 0.00 0.00 37 1020.6
20260831131004 89 260 1.0 6.0 0.00 0.00 0.00 37 1020.7
20260831130503 89 265 2.0 6.0 0.00 0.00 0.00 36 1020.4
20260831130024 89 279 2.0 6.0 0.00 0.00 0.00 36 1020.5
20260831125503 87 54 2.0 7.0 0.00 0.00 0.00 37 1020.6
20260831125003 88 8 2.0 7.0 0.00 0.00 0.00 37 1020.5
20260831124503 88 51 2.0 9.0 0.00 0.00 0.00 39 1020.8
20260831124003 86 50 2.0 9.0 0.00 0.00 0.00 39 1020.8
20260831123503 88 79 2.0 8.0 0.00 0.00 0.00 39 1021.1
20260831123003 88 57 2.0 8.0 0.00 0.00 0.00 39 1020.8
20260831122503 87 269 2.0 6.0 0.00 0.00 0.00 38 1021.1
20260831122003 87 266 1.0 4.0 0.00 0.00 0.00 39 1020.8
20260831121524 89 272 2.0 7.0 0.00 0.00 0.00 38 1020.7
20260831121003 88 229 2.0 7.0 0.00 0.00 0.00 38 1021.1
20260831120503 87 32 2.0 6.0 0.00 0.00 0.00 38 1020.9
20260831120003 85 56 2.0 6.0 0.00 0.00 0.00 41 1021.2
20260831115503 84 48 2.0 8.0 0.00 0.00 0.00 41 1021.2
20260831115024 84 50 2.0 8.0 0.00 0.00 0.00 41 1021.1
20260831114503 84 43 2.0 7.0 0.00 0.00 0.00 43 1021.3
20260831114003 86 33 2.0 6.0 0.00 0.00 0.00 39 1021.2
20260831113524 85 51 2.0 6.0 0.00 0.00 0.00 40 1021.3
20260831113003 84 58 2.0 7.0 0.00 0.00 0.00 40 1021.3
20260831112503 85 49 2.0 7.0 0.00 0.00 0.00 40 1021.4
20260831112003 84 343 1.0 6.0 0.00 0.00 0.00 42 1021.3
20260831111503 84 52 1.0 4.0 0.00 0.00 0.00 42 1021.4
20260831111003 83 26 1.0 4.0 0.00 0.00 0.00 42 1021.5
20260831110503 83 246 1.0 4.0 0.00 0.00 0.00 43 1021.3
20260831110003 83 301 1.0 4.0 0.00 0.00 0.00 45 1021.5
20260831105503 82 350 1.0 4.0 0.00 0.00 0.00 44 1021.5
20260831105003 82 20 1.0 4.0 0.00 0.00 0.00 45 1021.6
20260831104503 81 119 1.0 4.0 0.00 0.00 0.00 45 1021.8
20260831104024 81 134 1.0 4.0 0.00 0.00 0.00 46 1021.6
20260831103503 82 0 0.0 0.0 0.00 0.00 0.00 46 1021.7
20260831103003 81 0 0.0 0.0 0.00 0.00 0.00 48 1021.5
20260831102503 82 0 0.0 0.0 0.00 0.00 0.00 47 1021.9
20260831102003 81 0 0.0 0.0 0.00 0.00 0.00 48 1021.7
20260831101503 81 0 0.0 0.0 0.00 0.00 0.00 47 1021.7
20260831101003 81 0 0.0 0.0 0.00 0.00 0.00 47 1021.9
20260831100503 81 0 0.0 0.0 0.00 0.00 0.00 47 1021.8
20260831100003 80 0 0.0 0.0 0.00 0.00 0.00 47 1021.6
20260831095503 79 0 0.0 0.0 0.00 0.00 0.00 49 1021.8
20260831095003 79 0 0.0 0.0 0.00 0.00 0.00 49 1021.7
20260831094503 78 0 0.0 0.0 0.00 0.00 0.00 50 1021.6
20260831094003 80 0 0.0 0.0 0.00 0.00 0.00 49 1021.8
20260831093503 79 0 0.0 0.0 0.00 0.00 0.00 50 1021.6
20260831093024 78 0 0.0 0.0 0.00 0.00 0.00 51 1021.8
20260831092503 78 0 0.0 0.0 0.00 0.00 0.00 51 1021.8
20260831092003 78 0 0.0 0.0 0.00 0.00 0.00 50 1021.8
20260831091503 77 0 0.0 0.0 0.00 0.00 0.00 50 1021.8
20260831091003 77 0 0.0 0.0 0.00 0.00 0.00 51 1021.9
20260831090524 76 0 0.0 0.0 0.00 0.00 0.00 53 1022.0
20260831090003 75 0 0.0 0.0 0.00 0.00 0.00 54 1021.8
20260831085524 75 0 0.0 0.0 0.00 0.00 0.00 56 1021.9
20260831085003 76 0 0.0 0.0 0.00 0.00 0.00 56 1021.8
20260831084503 75 0 0.0 0.0 0.00 0.00 0.00 55 1021.8
20260831084003 75 0 0.0 0.0 0.00 0.00 0.00 57 1021.7
20260831083503 74 0 0.0 0.0 0.00 0.00 0.00 56 1021.7
20260831083003 74 0 0.0 0.0 0.00 0.00 0.00 58 1021.6
20260831082503 73 0 0.0 0.0 0.00 0.00 0.00 58 1021.6
20260831082003 72 0 0.0 0.0 0.00 0.00 0.00 61 1021.7
20260831081503 72 0 0.0 0.0 0.00 0.00 0.00 59 1021.4
20260831081003 71 0 0.0 0.0 0.00 0.00 0.00 61 1021.7
20260831080503 71 0 0.0 0.0 0.00 0.00 0.00 61 1021.5
20260831080003 70 0 0.0 0.0 0.00 0.00 0.00 63 1021.6
20260831075503 70 0 0.0 0.0 0.00 0.00 0.00 63 1021.6
20260831075003 69 0 0.0 0.0 0.00 0.00 0.00 64 1021.5
20260831074503 68 0 0.0 0.0 0.00 0.00 0.00 66 1021.5
20260831074003 68 0 0.0 0.0 0.00 0.00 0.00 67 1021.4
20260831073524 67 0 0.0 0.0 0.00 0.00 0.00 66 1021.6
20260831073003 67 0 0.0 0.0 0.00 0.00 0.00 67 1021.6
20260831072503 67 0 0.0 0.0 0.00 0.00 0.00 68 1021.5
20260831072003 66 0 0.0 0.0 0.00 0.00 0.00 68 1021.7
20260831071503 66 0 0.0 0.0 0.00 0.00 0.00 69 1021.4
20260831071003 65 0 0.0 0.0 0.00 0.00 0.00 70 1021.3
20260831070503 65 0 0.0 0.0 0.00 0.00 0.00 69 1021.4
20260831070003 64 0 0.0 0.0 0.00 0.00 0.00 72 1021.2
20260831065503 64 0 0.0 0.0 0.00 0.00 0.00 72 1021.2
20260831065003 64 0 0.0 0.0 0.00 0.00 0.00 74 1021.2
20260831064503 63 0 0.0 0.0 0.00 0.00 0.00 72 1021.2
20260831064003 63 0 0.0 0.0 0.00 0.00 0.00 73 1021.2
20260831063503 63 0 0.0 0.0 0.00 0.00 0.00 73 1021.2
20260831063003 63 0 0.0 0.0 0.00 0.00 0.00 73 1021.2
20260831062524 63 0 0.0 0.0 0.00 0.00 0.00 73 1020.9
20260831062003 63 0 0.0 0.0 0.00 0.00 0.00 73 1020.9
20260831061503 62 0 0.0 0.0 0.00 0.00 0.00 73 1020.7
20260831061003 63 0 0.0 0.0 0.00 0.00 0.00 73 1020.7
20260831060503 63 0 0.0 0.0 0.00 0.00 0.00 72 1020.7
20260831060003 63 0 0.0 0.0 0.00 0.00 0.00 72 1020.7
20260831055524 63 0 0.0 0.0 0.00 0.00 0.00 73 1020.6
20260831055003 63 0 0.0 0.0 0.00 0.00 0.00 72 1020.6
20260831054503 63 0 0.0 0.0 0.00 0.00 0.00 71 1020.6
20260831054003 63 0 0.0 0.0 0.00 0.00 0.00 72 1020.6
20260831053524 63 0 0.0 0.0 0.00 0.00 0.00 71 1020.5
20260831053003 62 0 0.0 0.0 0.00 0.00 0.00 72 1020.3
20260831052503 63 0 0.0 0.0 0.00 0.00 0.00 72 1020.3
20260831052003 63 0 0.0 0.0 0.00 0.00 0.00 72 1020.3
20260831051503 63 0 0.0 0.0 0.00 0.00 0.00 71 1020.3
20260831051003 63 0 0.0 0.0 0.00 0.00 0.00 71 1020.3
20260831050503 63 0 0.0 0.0 0.00 0.00 0.00 71 1020.2
20260831050003 64 0 0.0 0.0 0.00 0.00 0.00 70 1020.1
20260831045503 63 0 0.0 0.0 0.00 0.00 0.00 70 1020.2
20260831045003 64 0 0.0 0.0 0.00 0.00 0.00 70 1020.2
20260831044503 64 0 0.0 0.0 0.00 0.00 0.00 68 1020.3
20260831044003 64 0 0.0 0.0 0.00 0.00 0.00 69 1020.2
20260831043503 64 0 0.0 0.0 0.00 0.00 0.00 69 1020.2
20260831043003 64 0 0.0 0.0 0.00 0.00 0.00 69 1020.4
20260831042503 64 0 0.0 0.0 0.00 0.00 0.00 69 1020.1
20260831042024 64 0 0.0 0.0 0.00 0.00 0.00 69 1020.3
20260831041524 64 0 0.0 0.0 0.00 0.00 0.00 69 1020.1
20260831040503 63 0 0.0 0.0 0.00 0.00 0.00 70 1020.1
20260831040003 64 0 0.0 0.0 0.00 0.00 0.00 70 1020.1
20260831035503 64 0 0.0 0.0 0.00 0.00 0.00 69 1020.1
20260831035024 64 0 0.0 0.0 0.00 0.00 0.00 69 1020.0
20260831034524 64 0 0.0 0.0 0.00 0.00 0.00 69 1020.0
20260831034024 64 0 0.0 0.0 0.00 0.00 0.00 68 1020.1
20260831033503 64 0 0.0 0.0 0.00 0.00 0.00 68 1019.8
20260831033003 64 0 0.0 0.0 0.00 0.00 0.00 67 1019.9
20260831032503 65 0 0.0 0.0 0.00 0.00 0.00 67 1019.9
20260831032003 65 0 0.0 0.0 0.00 0.00 0.00 67 1019.9
20260831031503 65 0 0.0 0.0 0.00 0.00 0.00 67 1019.8
20260831031003 65 0 0.0 0.0 0.00 0.00 0.00 66 1019.9
20260831030503 64 0 0.0 0.0 0.00 0.00 0.00 67 1019.8
20260831030003 65 0 0.0 0.0 0.00 0.00 0.00 67 1019.8
20260831025503 65 0 0.0 0.0 0.00 0.00 0.00 67 1020.0
20260831025003 65 0 0.0 0.0 0.00 0.00 0.00 66 1019.9
20260831024503 66 0 0.0 0.0 0.00 0.00 0.00 65 1019.8
20260831024003 65 0 0.0 0.0 0.00 0.00 0.00 65 1019.8
20260831023503 65 0 0.0 0.0 0.00 0.00 0.00 65 1019.6
20260831023003 65 0 0.0 0.0 0.00 0.00 0.00 65 1019.8
20260831022503 65 0 0.0 0.0 0.00 0.00 0.00 66 1019.8
20260831022003 65 0 0.0 0.0 0.00 0.00 0.00 66 1019.8
20260831021503 65 0 0.0 0.0 0.00 0.00 0.00 66 1019.9
20260831021024 65 0 0.0 0.0 0.00 0.00 0.00 66 1019.9
20260831020503 65 0 0.0 0.0 0.00 0.00 0.00 65 1019.7
20260831020003 66 0 0.0 0.0 0.00 0.00 0.00 65 1019.9
20260831015503 66 0 0.0 0.0 0.00 0.00 0.00 64 1020.0
20260831015003 66 215 0.0 1.0 0.00 0.00 0.00 64 1020.0
20260831014503 67 221 0.0 1.0 0.00 0.00 0.00 63 1019.9
20260831014003 67 219 0.0 1.0 0.00 0.00 0.00 63 1019.9
20260831013503 67 200 0.0 1.0 0.00 0.00 0.00 63 1020.1
20260831013024 66 206 0.0 1.0 0.00 0.00 0.00 63 1020.0
20260831012503 66 215 0.0 1.0 0.00 0.00 0.00 63 1020.1
20260831012003 66 220 0.0 1.0 0.00 0.00 0.00 63 1019.9
20260831011503 66 222 0.0 1.0 0.00 0.00 0.00 64 1020.0
20260831011024 66 221 0.0 2.0 0.00 0.00 0.00 64 1020.0
20260831010503 66 222 1.0 2.0 0.00 0.00 0.00 65 1020.0
20260831010004 66 220 1.0 2.0 0.00 0.00 0.00 64 1020.1
20260831005504 67 217 1.0 2.0 0.00 0.00 0.00 64 1019.9
20260831005004 66 210 0.0 1.0 0.00 0.00 0.00 64 1020.0
20260831004504 67 190 0.0 1.0 0.00 0.00 0.00 63 1019.8
20260831004004 67 212 0.0 1.0 0.00 0.00 0.00 62 1020.0
20260831003504 67 225 0.0 1.0 0.00 0.00 0.00 63 1019.9
20260831003025 67 214 0.0 1.0 0.00 0.00 0.00 63 1020.1
20260831002525 68 215 1.0 2.0 0.00 0.00 0.00 61 1020.0
20260831002004 68 219 1.0 2.0 0.00 0.00 0.00 61 1019.8
20260831001525 68 222 1.0 2.0 0.00 0.00 0.00 61 1020.0
20260831001004 68 221 1.0 2.0 0.00 0.00 0.00 61 1020.0
20260831000504 68 220 1.0 2.0 0.00 0.00 0.00 60 1020.0
20260831000004 68 222 1.0 2.0 0.00 0.00 0.00 60 1019.9
20260830235504 67 223 0.0 1.0 0.00 0.00 0.00 61 1020.0
20260830235004 67 223 0.0 1.0 0.00 0.00 0.00 62 1019.9
20260830234504 67 219 0.0 1.0 0.00 0.00 0.00 62 1019.9
20260830234004 68 203 0.0 1.0 0.00 0.00 0.00 61 1020.2
20260830233504 67 0 0.0 0.0 0.00 0.00 0.00 61 1020.0
20260830233004 68 0 0.0 0.0 0.00 0.00 0.00 62 1020.0
20260830232504 67 0 0.0 0.0 0.00 0.00 0.00 61 1020.0
20260830232004 67 220 0.0 1.0 0.00 0.00 0.00 62 1020.1
20260830231504 68 230 1.0 3.0 0.00 0.00 0.00 61 1020.1
20260830231004 69 227 1.0 3.0 0.00 0.00 0.00 61 1020.1
20260830230525 69 219 1.0 2.0 0.00 0.00 0.00 59 1020.0
20260830230004 69 221 1.0 2.0 0.00 0.00 0.00 59 1019.9
20260830225504 69 223 1.0 2.0 0.00 0.00 0.00 59 1020.0
20260830225004 69 222 1.0 2.0 0.00 0.00 0.00 58 1019.9
20260830224504 69 222 1.0 1.0 0.00 0.00 0.00 58 1020.0
20260830224004 70 223 1.0 1.0 0.00 0.00 0.00 58 1019.7
20260830223504 70 224 1.0 1.0 0.00 0.00 0.00 58 1019.8
20260830223004 69 227 1.0 1.0 0.00 0.00 0.00 58 1019.8
20260830222504 70 223 0.0 1.0 0.00 0.00 0.00 58 1019.5
20260830222004 71 219 0.0 1.0 0.00 0.00 0.00 56 1019.6
20260830221504 71 220 0.0 1.0 0.00 0.00 0.00 56 1019.7
20260830221004 71 220 0.0 1.0 0.00 0.00 0.00 56 1019.7
20260830220525 71 221 0.0 1.0 0.00 0.00 0.00 56 1019.8
20260830220004 71 0 0.0 0.0 0.00 0.00 0.00 56 1019.8
20260830215504 71 221 0.0 1.0 0.00 0.00 0.00 56 1019.6
20260830215004 72 186 0.0 1.0 0.00 0.00 0.00 54 1019.5
20260830214504 72 194 0.0 1.0 0.00 0.00 0.00 54 1019.2
20260830214004 72 219 0.0 1.0 0.00 0.00 0.00 53 1019.4
20260830213504 72 223 0.0 1.0 0.00 0.00 0.00 53 1019.4
20260830213004 72 224 0.0 1.0 0.00 0.00 0.00 53 1019.0
20260830212504 72 220 0.0 1.0 0.00 0.00 0.00 54 1019.4
20260830212004 72 222 1.0 2.0 0.00 0.00 0.00 54 1019.1
20260830211525 72 223 0.0 2.0 0.00 0.00 0.00 53 1019.0
20260830211025 73 223 0.0 2.0 0.00 0.00 0.00 53 1019.1
20260830210504 73 222 0.0 1.0 0.00 0.00 0.00 52 1019.0
20260830210004 74 219 0.0 1.0 0.00 0.00 0.00 52 1018.9
20260830205504 74 219 1.0 2.0 0.00 0.00 0.00 52 1019.0
20260830205004 74 221 1.0 2.0 0.00 0.00 0.00 51 1018.9
20260830204504 74 215 1.0 2.0 0.00 0.00 0.00 50 1018.9
20260830204004 75 208 1.0 2.0 0.00 0.00 0.00 49 1018.9
20260830203504 75 217 1.0 2.0 0.00 0.00 0.00 49 1018.7
20260830203004 75 219 1.0 2.0 0.00 0.00 0.00 49 1018.8
20260830202504 75 219 0.0 2.0 0.00 0.00 0.00 50 1018.7
20260830202025 75 214 0.0 2.0 0.00 0.00 0.00 49 1018.8
20260830201504 76 217 0.0 2.0 0.00 0.00 0.00 48 1018.6
20260830201004 77 216 1.0 2.0 0.00 0.00 0.00 48 1018.6
20260830200504 77 215 0.0 1.0 0.00 0.00 0.00 47 1018.4
20260830200004 77 204 0.0 2.0 0.00 0.00 0.00 47 1018.4
20260830195504 78 193 0.0 2.0 0.00 0.00 0.00 47 1018.3
20260830195004 78 191 0.0 2.0 0.00 0.00 0.00 46 1018.2
20260830194504 79 250 1.0 4.0 0.00 0.00 0.00 45 1018.2
20260830194004 79 249 1.0 4.0 0.00 0.00 0.00 46 1017.9
20260830193504 79 236 1.0 3.0 0.00 0.00 0.00 46 1017.9
20260830193004 79 233 1.0 3.0 0.00 0.00 0.00 46 1017.8
20260830192504 78 231 1.0 3.0 0.00 0.00 0.00 46 1017.9
20260830192004 78 223 1.0 2.0 0.00 0.00 0.00 45 1017.9
20260830191503 78 224 1.0 2.0 0.00 0.00 0.00 45 1017.9
20260830191004 79 221 1.0 2.0 0.00 0.00 0.00 45 1017.5
20260830190504 80 216 1.0 2.0 0.00 0.00 0.00 43 1017.6
20260830190004 80 218 1.0 2.0 0.00 0.00 0.00 43 1017.5
20260830185504 80 220 1.0 2.0 0.00 0.00 0.00 42 1017.3
20260830185004 81 219 1.0 2.0 0.00 0.00 0.00 42 1017.5
20260830184504 81 219 1.0 2.0 0.00 0.00 0.00 41 1017.5
20260830184004 81 219 0.0 1.0 0.00 0.00 0.00 42 1017.4
20260830183504 81 221 0.0 1.0 0.00 0.00 0.00 42 1017.4
20260830183004 82 220 0.0 1.0 0.00 0.00 0.00 43 1017.2
20260830182504 82 0 0.0 0.0 0.00 0.00 0.00 41 1017.2
20260830182004 83 215 0.0 1.0 0.00 0.00 0.00 40 1017.3
20260830181504 85 220 0.0 2.0 0.00 0.00 0.00 39 1017.3
20260830181004 85 222 0.0 2.0 0.00 0.00 0.00 38 1017.3
20260830180503 87 225 0.0 2.0 0.00 0.00 0.00 38 1017.0
20260830180025 87 224 0.0 2.0 0.00 0.00 0.00 36 1017.0